Orbital Elements at Epoch 2459000.5 (2020-May-31.0) TDB
Reference: JPL 11 (heliocentric ecliptic J2000)
Element | Value | Uncertainty (1-sigma) | Units |
e | .212966726651038 | 6.2588e-08 | |
a | 2.435222327968972 | 2.4213e-08 | au |
q | 1.9166010001139 | 1.3975e-07 | au |
i | 3.222002150927923 | 5.6061e-06 | deg |
node | 57.4526193642934 | 0.00014809 | deg |
peri | 232.9554515190994 | 0.0001511 | deg |
M | 121.2671815890333 | 3.3141e-05 | deg |
tp | 2458532.929464497999 (2019-Feb-18.42946450) | 0.00012214 | TDB |
period | 1388.053969549358 3.80 | 2.0702e-05 5.668e-08 | d yr |
n | .259355909710684 | 3.8682e-09 | deg/d |
Q | 2.953843655824045 | 2.937e-08 | au |
|
| | Orbit Determination Parameters
Additional Information
|